• In Germany
  • List of Countries
  • For 7 days
  • Water Temperature
  • Satellite Maps
  • Weather Map
  • Weather Widgets
  • user-avatar
    Login

    Hourly Weather Ordino

    Today, 27 May, Saturday

    Time Temperature Precipitation Wind Pressure Humidity
    00:00 +10°C° 0 mm 1 mps 634 mmHg 83%
    01:00 +10°C° 0 mm 1 mps 634 mmHg 82%
    02:00 +10°C° 0 mm 1 mps 634 mmHg 82%
    03:00 +9°C° 0 mm 1 mps 634 mmHg 81%
    04:00 +11°C° 0 mm 1 mps 634 mmHg 78%
    05:00 +12°C° 0 mm 1 mps 635 mmHg 74%
    06:00 +13°C° 0 mm 1 mps 636 mmHg 71%
    07:00 +15°C° 0 mm 2 mps 637 mmHg 63%
    08:00 +18°C° 0 mm 2 mps 637 mmHg 54%
    09:00 +20°C° 0 mm 2 mps 638 mmHg 46%
    10:00 +21°C° 0 mm 2 mps 638 mmHg 44%
    11:00 +23°C° 0 mm 2 mps 639 mmHg 43%
    12:00 +24°C° 0 mm 2 mps 639 mmHg 41%
    13:00 +24°C° 0.3 mm 3 mps 639 mmHg 44%
    14:00 +22°C° 0.3 mm 3 mps 639 mmHg 46%
    15:00 +22°C° 0.3 mm 3 mps 638 mmHg 49%
    16:00 +21°C° 0.2 mm 3 mps 638 mmHg 54%
    17:00 +19°C° 0.2 mm 2 mps 638 mmHg 60%
    18:00 +18°C° 0.2 mm 2 mps 637 mmHg 65%
    19:00 +16°C° 0.2 mm 2 mps 637 mmHg 72%
    20:00 +14°C° 0.2 mm 2 mps 636 mmHg 78%
    21:00 +12°C° 0.2 mm 1 mps 636 mmHg 84%
    22:00 +12°C° 0.1 mm 1 mps 636 mmHg 85%
    23:00 +11°C° 0.1 mm 1 mps 636 mmHg 85%

    Tomorrow, 28 May, Sunday

    Time Temperature Precipitation Wind Pressure Humidity
    00:00 +11°C° 0.1 mm 1 mps 636 mmHg 86%
    01:00 +11°C° 0 mm 1 mps 635 mmHg 85%
    02:00 +10°C° 0 mm 1 mps 635 mmHg 84%
    03:00 +10°C° 0 mm 1 mps 635 mmHg 84%
    04:00 +11°C° 0 mm 1 mps 635 mmHg 80%
    05:00 +12°C° 0 mm 1 mps 636 mmHg 75%
    06:00 +14°C° 0 mm 1 mps 637 mmHg 71%
    07:00 +16°C° 0 mm 2 mps 637 mmHg 62%
    08:00 +18°C° 0 mm 2 mps 638 mmHg 53%
    09:00 +20°C° 0 mm 2 mps 639 mmHg 44%
    10:00 +21°C° 0 mm 3 mps 639 mmHg 42%
    11:00 +22°C° 0 mm 3 mps 639 mmHg 39%
    12:00 +24°C° 0 mm 3 mps 640 mmHg 37%
    13:00 +24°C° 0 mm 3 mps 639 mmHg 37%
    14:00 +24°C° 0 mm 3 mps 639 mmHg 37%
    15:00 +23°C° 0 mm 4 mps 639 mmHg 37%
    16:00 +22°C° 0 mm 3 mps 638 mmHg 43%
    17:00 +20°C° 0 mm 3 mps 638 mmHg 48%
    18:00 +19°C° 0 mm 2 mps 637 mmHg 54%
    19:00 +16°C° 0 mm 2 mps 637 mmHg 60%
    20:00 +14°C° 0 mm 2 mps 636 mmHg 66%
    21:00 +12°C° 0 mm 2 mps 635 mmHg 71%
    22:00 +10°C° 0 mm 2 mps 635 mmHg 71%
    23:00 +10°C° 0 mm 2 mps 635 mmHg 71%

    Day after tomorrow, 29 May, Monday

    Time Temperature Precipitation Wind Pressure Humidity
    00:00 +10°C° 0 mm 2 mps 634 mmHg 70%
    01:00 +9°C° 0 mm 2 mps 634 mmHg 67%
    02:00 +9°C° 0 mm 2 mps 634 mmHg 63%
    03:00 +9°C° 0 mm 2 mps 634 mmHg 60%
    04:00 +10°C° 0 mm 2 mps 634 mmHg 58%
    05:00 +12°C° 0 mm 1 mps 634 mmHg 55%
    06:00 +13°C° 0 mm 1 mps 635 mmHg 53%
    07:00 +15°C° 0 mm 2 mps 636 mmHg 47%
    08:00 +17°C° 0 mm 2 mps 636 mmHg 42%
    09:00 +19°C° 0 mm 2 mps 637 mmHg 36%
    10:00 +19°C° 0 mm 2 mps 637 mmHg 34%
    11:00 +20°C° 0 mm 3 mps 638 mmHg 32%
    12:00 +21°C° 0 mm 3 mps 638 mmHg 30%
    13:00 +21°C° 0.1 mm 3 mps 638 mmHg 31%
    14:00 +21°C° 0.1 mm 3 mps 638 mmHg 32%
    15:00 +21°C° 0.1 mm 4 mps 637 mmHg 33%
    16:00 +20°C° 0.1 mm 3 mps 637 mmHg 41%
    17:00 +18°C° 0.1 mm 2 mps 636 mmHg 49%
    18:00 +16°C° 0.1 mm 1 mps 635 mmHg 58%
    19:00 +15°C° 0.1 mm 1 mps 635 mmHg 63%
    20:00 +13°C° 0.1 mm 1 mps 635 mmHg 68%
    21:00 +11°C° 0.1 mm 1 mps 634 mmHg 73%
    22:00 +11°C° 0 mm 1 mps 634 mmHg 74%
    23:00 +10°C° 0 mm 1 mps 634 mmHg 75%

    30 May, Tuesday

    Time Temperature Precipitation Wind Pressure Humidity
    00:00 +9°C° 0 mm 0 mps 634 mmHg 75%
    01:00 +8°C° 0 mm 0 mps 633 mmHg 78%
    02:00 +7°C° 0 mm 0 mps 633 mmHg 81%
    03:00 +6°C° 0 mm 0 mps 632 mmHg 83%
    04:00 +8°C° 0 mm 0 mps 633 mmHg 78%
    05:00 +10°C° 0 mm 0 mps 634 mmHg 73%
    06:00 +11°C° 0 mm 0 mps 635 mmHg 67%
    07:00 +14°C° 0 mm 1 mps 636 mmHg 60%
    08:00 +16°C° 0 mm 1 mps 637 mmHg 52%
    09:00 +17°C° 0 mm 2 mps 637 mmHg 45%
    10:00 +18°C° 0.2 mm 2 mps 637 mmHg 46%
    11:00 +18°C° 0.2 mm 2 mps 637 mmHg 48%
    12:00 +18°C° 0.2 mm 2 mps 638 mmHg 49%
    13:00 +18°C° 0.5 mm 2 mps 637 mmHg 51%
    14:00 +18°C° 0.5 mm 2 mps 637 mmHg 52%
    15:00 +18°C° 0.5 mm 2 mps 637 mmHg 54%
    16:00 +17°C° 0.6 mm 2 mps 637 mmHg 60%
    17:00 +16°C° 0.6 mm 2 mps 637 mmHg 66%
    18:00 +14°C° 0.6 mm 1 mps 636 mmHg 72%
    19:00 +13°C° 0.5 mm 1 mps 636 mmHg 77%
    20:00 +12°C° 0.5 mm 1 mps 636 mmHg 81%
    21:00 +10°C° 0.5 mm 0 mps 636 mmHg 85%
    22:00 +10°C° 0.4 mm 1 mps 636 mmHg 86%
    23:00 +10°C° 0.4 mm 1 mps 636 mmHg 88%

    31 May, Wednesday

    Time Temperature Precipitation Wind Pressure Humidity
    00:00 +10°C° 0.4 mm 1 mps 636 mmHg 89%
    01:00 +10°C° 0.8 mm 1 mps 635 mmHg 90%
    02:00 +10°C° 0.8 mm 1 mps 635 mmHg 91%
    03:00 +9°C° 0.8 mm 0 mps 635 mmHg 92%
    04:00 +9°C° 1.2 mm 0 mps 636 mmHg 92%
    05:00 +9°C° 1.2 mm 0 mps 636 mmHg 92%
    06:00 +9°C° 1.2 mm 0 mps 636 mmHg 92%
    07:00 +10°C° 0.7 mm 0 mps 636 mmHg 90%
    08:00 +11°C° 0.7 mm 0 mps 637 mmHg 88%
    09:00 +11°C° 0.7 mm 0 mps 637 mmHg 85%
    10:00 +13°C° 0.4 mm 1 mps 637 mmHg 81%
    11:00 +14°C° 0.4 mm 1 mps 637 mmHg 76%
    12:00 +15°C° 0.4 mm 1 mps 638 mmHg 72%
    13:00 +15°C° 0.8 mm 1 mps 637 mmHg 73%
    14:00 +15°C° 0.8 mm 1 mps 637 mmHg 74%
    15:00 +14°C° 0.8 mm 1 mps 637 mmHg 76%
    16:00 +14°C° 0.6 mm 1 mps 637 mmHg 77%
    17:00 +14°C° 0.6 mm 1 mps 637 mmHg 79%
    18:00 +13°C° 0.6 mm 0 mps 637 mmHg 80%
    19:00 +11°C° 0.1 mm 0 mps 636 mmHg 84%
    20:00 +9°C° 0.1 mm 0 mps 636 mmHg 88%
    21:00 +8°C° 0.1 mm 0 mps 635 mmHg 92%
    22:00 +7°C° 0 mm 0 mps 635 mmHg 92%
    23:00 +7°C° 0 mm 0 mps 635 mmHg 92%

    1 June, Thursday

    Time Temperature Precipitation Wind Pressure Humidity
    00:00 +6°C° 0 mm 0 mps 634 mmHg 92%
    01:00 +6°C° 0 mm 0 mps 634 mmHg 92%
    02:00 +6°C° 0 mm 0 mps 634 mmHg 92%
    03:00 +6°C° 0 mm 1 mps 633 mmHg 91%
    04:00 +8°C° 0 mm 1 mps 634 mmHg 87%
    05:00 +9°C° 0 mm 0 mps 635 mmHg 82%
    06:00 +12°C° 0 mm 0 mps 636 mmHg 77%
    07:00 +14°C° 0 mm 0 mps 637 mmHg 68%
    08:00 +16°C° 0 mm 0 mps 638 mmHg 59%
    09:00 +18°C° 0 mm 0 mps 639 mmHg 51%
    10:00 +20°C° 0 mm 1 mps 639 mmHg 48%
    11:00 +21°C° 0 mm 1 mps 639 mmHg 45%
    12:00 +22°C° 0 mm 1 mps 639 mmHg 42%
    13:00 +22°C° 0 mm 1 mps 639 mmHg 45%
    14:00 +21°C° 0 mm 1 mps 638 mmHg 48%
    15:00 +21°C° 0 mm 1 mps 638 mmHg 51%
    16:00 +20°C° 0 mm 1 mps 637 mmHg 57%
    17:00 +19°C° 0 mm 1 mps 637 mmHg 62%
    18:00 +18°C° 0 mm 1 mps 637 mmHg 68%
    19:00 +15°C° 0 mm 1 mps 636 mmHg 75%
    20:00 +12°C° 0 mm 1 mps 636 mmHg 81%
    21:00 +10°C° 0 mm 1 mps 635 mmHg 88%
    22:00 +10°C° 0 mm 1 mps 635 mmHg 89%
    23:00 +9°C° 0 mm 1 mps 635 mmHg 89%
    Show more